Regional Weather Roundup
Issued by NWS

Home | Current Version | Previous Version | Text Only | Print | Product List | Glossary Off
Versions: 1 2 3 4 5 6 7 8 9 10 11 12 13 14 15 16 17 18 19 20 21 22 23 24 25 26 27 28 29 30 31 32 33 34 35 36 37 38 39 40 41 42 43 44 45 46 47 48 49 50

000
ASUS43 KLMK 220310
RWRKY
KENTUCKY REGIONAL WEATHER ROUNDUP
NATIONAL WEATHER SERVICE LOUISVILLE KY
1000 PM EST TUE FEB 21 2017

NOTE "FAIR" INDICATES FEW OR NO CLOUDS BELOW 12,000 FEET
WITH NO SIGNIFICANT WEATHER AND/OR OBSTRUCTIONS TO VISIBILITY.

KYZ001>023-026-027-061>063-070>075-220400-
WESTERN AND SOUTH CENTRAL KENTUCKY

CITY           SKY/WX    TMP DP  RH WIND       PRES   REMARKS
PADUCAH        CLOUDY    57  54  89 CALM      29.91S
HENDERSON      CLOUDY    57  52  82 CALM      29.92S
OWENSBORO      LGT RAIN  61  55  81 SE8       29.93F
HOPKINSVILLE   DRIZZLE   59  59 100 CALM      29.94R
BOWLING GREEN  LGT RAIN  58  56  93 E5        29.96S
GLASGOW        RAIN      57  53  87 SE3       29.96F
$$

KYZ024-025-028>034-038-045-046-053-220400-
NORTH CENTRAL KENTUCKY

CITY           SKY/WX    TMP DP  RH WIND       PRES   REMARKS
LOUISVILLE/SDF CLOUDY    62  53  72 SE7       29.97S
LOUISVILLE/LOU CLOUDY    63  54  72 CALM      29.98S
FORT KNOX      LGT RAIN  59  55  87 SE6       29.95S
$$

KYZ035>037-039>044-047>052-055>060-089>105-220400-
NORTHEAST KENTUCKY

CITY           SKY/WX    TMP DP  RH WIND       PRES   REMARKS
LEXINGTON      LGT RAIN  59  54  83 CALM      30.00R
COVINGTON      RAIN      56  56 100 SE9       29.98F FOG
FRANKFORT      LGT RAIN  59  54  83 CALM      29.98S
$$

KYZ054-064>069-076>088-106>120-220400-
SOUTHEAST KENTUCKY

CITY           SKY/WX    TMP DP  RH WIND       PRES   REMARKS
JACKSON        CLOUDY    65  43  44 CALM      30.00S
LONDON         CLOUDY    60  50  69 CALM      30.00S
SOMERSET       CLOUDY    54  54 100 CALM      30.02S
MIDDLESBORO    CLOUDY    57  53  85 W3        30.01S
MONTICELLO     LGT RAIN  58  53  84 NE8       30.01F
$$





USA.gov is the U.S. government's official web portal to all federal, state and local government web resources and services.